Flag for U.S.A. Weather past 2 weeks in Woodstock, New York, U.S.A.

Now
94 °F

Sunny.


Feels Like: 93 °F
Forecast: 65 / 91 °F
Wind: 7 mph from West

Location: Dutchess County Airport

Current Time: Jul 29, 2015 at 6:38:06 PM

Latest Report: Jul 29, 2015 at 5:53 PM


Visibility: 10 mi

Pressure: 29.88 "Hg

Humidity: 31%

Dew point: 59 °F

Location of WoodstockLocation

Historic Weather in Woodstock — Graph

°F

Woodstock temperature yesterday

Maximum temperature yesterday: 92 °F (at 4:53 PM)
Minimum temperature yesterday: 66 °F (at 6:00 AM)
Average temperature yesterday: 79 °F

Past Weeks' High & Low Weather Summary

 TemperatureHumidityPressure
High96 °F (Jul 19, 3:53 PM)93% (Jul 15, 1:53 AM)30.11 "Hg (Jul 15, 1:53 AM)
Low51 °F (Jul 17, 5:53 AM)28% (Jul 23, 4:53 PM)29.54 "Hg (Jul 21, 5:53 PM)
Average75 °F66%29.86 "Hg
* Reported Jul 14 4:53 PM — Jul 29 4:53 PM, Woodstock, Weather by CustomWeather, © 2015

Note: Actual official high and low records may vary slightly from our data, if they occured in-between our weather recording intervals... More about our weather records

Advertising

Woodstock weather history for previous 24 hours

 ConditionsComfort  
Time TempWeatherWind HumidityBarometerVisibility
4:53 PM
Wed, Jul 29
95 °FSunny.6 mph29%29.89 "Hg10 mi
3:53 PM94 °FSunny.3 mph29%29.90 "Hg10 mi
2:53 PM93 °FSunny.5 mph32%29.92 "Hg10 mi
1:53 PM93 °FSunny.5 mph30%29.93 "Hg10 mi
12:53 PM89 °FSunny.3 mph42%29.95 "Hg10 mi
11:53 AM88 °FSunny.3 mph48%29.96 "Hg10 mi
10:53 AM84 °FSunny.No wind57%29.98 "Hg10 mi
9:53 AM82 °FSunny.No wind63%29.98 "Hg10 mi
8:53 AM77 °FSunny.No wind74%29.98 "Hg10 mi
7:53 AM73 °FSunny.No wind81%29.98 "Hg10 mi
6:53 AM69 °FSunny.No wind87%29.98 "Hg10 mi
5:53 AM67 °FClear.3 mph90%29.96 "Hg10 mi
4:53 AM67 °FClear.No wind90%29.95 "Hg10 mi
3:53 AM69 °FClear.No wind90%29.94 "Hg10 mi
2:53 AM70 °FClear.No wind90%29.94 "Hg10 mi
1:53 AM70 °FClear.5 mph90%29.96 "Hg10 mi
12:53 AM71 °FClear.No wind90%29.96 "Hg10 mi
11:53 PM
Tue, Jul 28
73 °FClear.No wind88%29.96 "Hg10 mi
10:53 PM75 °FClear.No wind82%29.95 "Hg10 mi
9:53 PM79 °FPassing clouds.No wind72%29.94 "Hg10 mi
8:53 PM81 °FPassing clouds.No wind65%29.93 "Hg10 mi
7:53 PM84 °FPartly sunny.No wind59%29.92 "Hg10 mi
6:53 PM90 °FPartly sunny.3 mph39%29.91 "Hg10 mi
Weather by CustomWeather, © 2015

See weather overviewHow to use our weather pages